VKG4019 LEPA-EKCH

Flight info

Callsign VKG4019
Flight time 2h 28m
Altitude 39000
Route MEROS DCT LAPIT DCT CHELY DCT LUMAS DCT MAXIR DCT LUSOL DCT BODRU DCT OKTET DCT IRMAR DCT KINES DCT VANAS DCT MOBLO DCT UBIMA DCT SOSAL DCT KORED DCT BERSU DCT DITON DCT LOKTA DCT TEDGO DCT HAREM DCT LOHRE DCT BERXO DCT MAKEL N851 GESKA Z711 MONAK
Aircraft A339/H-VGDW/C

Departure

Time 2026-05-04 17:17
Airport Palma de Mallorca Airport (LEPA)

Arrival

Time 2026-05-04 19:46
Airport Copenhagen Kastrup Airport (EKCH)
Time Latitude Longitude Altitude Speed Heading
2026-05-04 16:33 39.54896 2.73826 51 ft 0 kts 249°
2026-05-04 16:58 39.54897 2.73826 50 ft 0 kts 249°
2026-05-04 16:58 39.54901 2.73842 50 ft 2 kts 249°
2026-05-04 16:59 39.54912 2.73879 50 ft 2 kts 249°
2026-05-04 17:00 39.54910 2.73949 50 ft 2 kts 332°
2026-05-04 17:00 39.54883 2.73969 50 ft 0 kts 327°
2026-05-04 17:03 39.54904 2.73958 50 ft 3 kts 355°
2026-05-04 17:04 39.54967 2.74006 51 ft 7 kts
2026-05-04 17:04 39.55080 2.73922 51 ft 12 kts 328°
2026-05-04 17:05 39.55257 2.73782 51 ft 17 kts 328°
2026-05-04 17:05 39.55482 2.73604 51 ft 19 kts 329°
2026-05-04 17:06 39.55646 2.73503 51 ft 8 kts 22°
2026-05-04 17:06 39.55686 2.73569 51 ft 10 kts 60°
2026-05-04 17:07 39.55783 2.73778 51 ft 15 kts 59°
2026-05-04 17:07 39.55824 2.73865 51 ft 17 kts 59°
2026-05-04 17:07 39.55913 2.74052 52 ft 19 kts 59°
2026-05-04 17:07 39.55983 2.74202 52 ft 19 kts 59°
2026-05-04 17:08 39.56051 2.74343 52 ft 12 kts 58°
2026-05-04 17:08 39.56082 2.74409 52 ft 0 kts 57°
2026-05-04 17:10 39.56089 2.74421 52 ft 2 kts 52°
2026-05-04 17:10 39.56126 2.74452 52 ft 0 kts 14°
2026-05-04 17:14 39.56224 2.74395 52 ft 10 kts 326°
2026-05-04 17:14 39.56249 2.74319 52 ft 9 kts 251°
2026-05-04 17:14 39.56227 2.74272 52 ft 0 kts 239°
2026-05-04 17:16 39.55647 2.73043 51 ft 136 kts 239°
2026-05-04 17:17 39.55087 2.71825 278 ft 162 kts 238°
2026-05-04 17:17 39.53361 2.68151 2150 ft 160 kts 237°
2026-05-04 17:18 39.52741 2.66891 2511 ft 176 kts 237°
2026-05-04 17:18 39.50645 2.65000 3181 ft 217 kts 175°
2026-05-04 17:19 39.48420 2.67960 3908 ft 271 kts 103°
2026-05-04 17:19 39.48117 2.73008 5196 ft 289 kts 96°
2026-05-04 17:20 39.47771 2.78219 6580 ft 297 kts 99°
2026-05-04 17:20 39.47268 2.83545 7967 ft 304 kts 101°
2026-05-04 17:20 39.46990 2.86260 8650 ft 307 kts 101°
2026-05-04 17:21 39.46406 2.91784 10039 ft 314 kts 101°
2026-05-04 17:21 39.45785 2.97565 10890 ft 341 kts 101°
2026-05-04 17:22 39.45443 3.00706 11187 ft 358 kts 101°
2026-05-04 17:22 39.45093 3.03954 11537 ft 373 kts 101°
2026-05-04 17:23 39.43987 3.14218 13523 ft 387 kts 101°
2026-05-04 17:23 39.43604 3.17735 14217 ft 390 kts 101°
2026-05-04 17:23 39.43135 3.24767 15435 ft 404 kts 84°
2026-05-04 17:24 39.43869 3.28296 16035 ft 410 kts 65°
2026-05-04 17:24 39.48297 3.37898 17888 ft 422 kts 57°
2026-05-04 17:25 39.49825 3.41136 18483 ft 426 kts 57°
2026-05-04 17:25 39.52910 3.47771 19560 ft 437 kts 58°
2026-05-04 17:26 39.56058 3.54627 20647 ft 446 kts 58°
2026-05-04 17:26 39.60855 3.65137 22107 ft 461 kts 59°
2026-05-04 17:27 39.64143 3.72357 23018 ft 469 kts 59°
2026-05-04 17:27 39.67476 3.79691 23938 ft 477 kts 59°
2026-05-04 17:28 39.70823 3.87084 24969 ft 480 kts 60°
2026-05-04 17:29 39.75871 3.98257 26523 ft 483 kts 59°
2026-05-04 17:29 39.81008 4.09671 27727 ft 491 kts 60°
2026-05-04 17:30 39.86944 4.20472 28785 ft 496 kts 33°
2026-05-04 17:31 39.93213 4.23562 29507 ft 483 kts
2026-05-04 17:31 40.03294 4.25673 30485 ft 492 kts
2026-05-04 17:32 40.10081 4.27202 30958 ft 502 kts
2026-05-04 17:33 40.20500 4.29650 31855 ft 509 kts
2026-05-04 17:33 40.23976 4.30475 32330 ft 507 kts
2026-05-04 17:34 40.34348 4.32938 33587 ft 504 kts
2026-05-04 17:34 40.37755 4.33744 33939 ft 504 kts
2026-05-04 17:35 40.48091 4.36203 34987 ft 500 kts
2026-05-04 17:35 40.54862 4.37818 35655 ft 497 kts
2026-05-04 17:35 40.58275 4.38633 35964 ft 495 kts
2026-05-04 17:36 40.61634 4.39435 36275 ft 494 kts
2026-05-04 17:36 40.65055 4.40254 36596 ft 494 kts
2026-05-04 17:36 40.68438 4.41062 36861 ft 495 kts
2026-05-04 17:36 40.71838 4.41877 37146 ft 496 kts
2026-05-04 17:37 40.75201 4.42685 37403 ft 496 kts
2026-05-04 17:37 40.78605 4.43504 37660 ft 497 kts
2026-05-04 17:37 40.82004 4.44320 37862 ft 498 kts
2026-05-04 17:38 40.88909 4.45983 37902 ft 507 kts
2026-05-04 17:38 40.95918 4.47674 37910 ft 517 kts
2026-05-04 17:39 41.06580 4.50271 37999 ft 523 kts
2026-05-04 17:39 41.10115 4.51132 38249 ft 522 kts
2026-05-04 17:39 41.13701 4.52005 38508 ft 520 kts
2026-05-04 17:40 41.17243 4.52870 38739 ft 520 kts
2026-05-04 17:40 41.20798 4.53739 38891 ft 519 kts
2026-05-04 17:40 41.27887 4.55467 38922 ft 519 kts
2026-05-04 17:41 41.35014 4.57212 38921 ft 521 kts
2026-05-04 17:41 41.42143 4.58963 38917 ft 521 kts
2026-05-04 17:42 41.49233 4.60707 38909 ft 522 kts
2026-05-04 17:42 41.56368 4.62467 38908 ft 523 kts
2026-05-04 17:43 41.63511 4.64247 38908 ft 525 kts
2026-05-04 17:43 41.70628 4.66751 38901 ft 532 kts 13°
2026-05-04 17:44 41.77516 4.70408 38905 ft 538 kts 21°
2026-05-04 17:44 41.84112 4.75189 38906 ft 541 kts 27°
2026-05-04 17:45 41.90564 4.80430 38904 ft 542 kts 28°
2026-05-04 17:45 41.97000 4.85682 38895 ft 542 kts 28°
2026-05-04 17:46 42.03467 4.90937 38902 ft 543 kts 27°
2026-05-04 17:46 42.09920 4.96171 38902 ft 543 kts 27°
2026-05-04 17:47 42.16333 5.01383 38911 ft 542 kts 27°
2026-05-04 17:47 42.22786 5.06640 38916 ft 542 kts 27°
2026-05-04 17:48 42.29224 5.11899 38920 ft 540 kts 28°
2026-05-04 17:48 42.34543 5.16254 38925 ft 540 kts 27°
2026-05-04 17:49 42.41996 5.22368 38925 ft 537 kts 27°
2026-05-04 17:49 42.48373 5.27616 38928 ft 536 kts 27°
2026-05-04 17:50 42.54695 5.32830 38927 ft 536 kts 27°
2026-05-04 17:50 42.61046 5.38081 38937 ft 533 kts 27°
2026-05-04 17:51 42.67375 5.43326 38928 ft 532 kts 28°
2026-05-04 17:51 42.73683 5.48565 38945 ft 531 kts 27°
2026-05-04 17:52 42.79944 5.53778 38939 ft 530 kts 27°
2026-05-04 17:52 42.86268 5.59056 38950 ft 530 kts 28°
2026-05-04 17:53 42.92496 5.64267 38948 ft 529 kts 28°
2026-05-04 17:53 42.98720 5.69482 38954 ft 529 kts 28°
2026-05-04 17:54 43.05067 5.74822 38960 ft 529 kts 29°
2026-05-04 17:54 43.11300 5.80077 38954 ft 529 kts 29°
2026-05-04 17:55 43.17562 5.85370 38965 ft 528 kts 29°
2026-05-04 17:55 43.23813 5.90667 38957 ft 528 kts 29°
2026-05-04 17:56 43.30065 5.95975 38956 ft 527 kts 28°
2026-05-04 17:56 43.36517 6.00566 38958 ft 522 kts 19°
2026-05-04 17:57 43.43390 6.03698 38962 ft 516 kts
2026-05-04 17:57 43.50415 6.05267 38953 ft 508 kts
2026-05-04 17:58 43.57474 6.05936 38952 ft 507 kts 359°
2026-05-04 17:58 43.64502 6.06574 38951 ft 508 kts 359°
2026-05-04 17:59 43.71532 6.07634 38950 ft 511 kts
2026-05-04 18:00 43.81922 6.11469 38978 ft 518 kts 17°
2026-05-04 18:00 43.88522 6.15481 38998 ft 520 kts 22°
2026-05-04 18:01 43.94997 6.19948 38999 ft 519 kts 23°
2026-05-04 18:01 44.01465 6.24421 38993 ft 519 kts 23°
2026-05-04 18:02 44.11161 6.31089 39011 ft 518 kts 23°
2026-05-04 18:02 44.17630 6.35540 39024 ft 518 kts 23°
2026-05-04 18:03 44.21938 6.38515 39031 ft 518 kts 23°
2026-05-04 18:03 44.29396 6.43670 39037 ft 518 kts 23°
2026-05-04 18:04 44.36950 6.48905 39047 ft 519 kts 23°
2026-05-04 18:05 44.46601 6.55619 39041 ft 518 kts 23°
2026-05-04 18:05 44.53075 6.60137 39049 ft 518 kts 23°
2026-05-04 18:06 44.62721 6.66883 39041 ft 517 kts 24°
2026-05-04 18:06 44.69169 6.71411 39055 ft 518 kts 24°
2026-05-04 18:07 44.75781 6.75370 39084 ft 512 kts 15°
2026-05-04 18:07 44.82685 6.77742 39063 ft 506 kts
2026-05-04 18:08 44.89642 6.78470 39038 ft 500 kts 355°
2026-05-04 18:08 44.96543 6.78075 39041 ft 497 kts 353°
2026-05-04 18:09 45.10412 6.77067 39039 ft 499 kts 353°
2026-05-04 18:10 45.17325 6.76600 39034 ft 499 kts 353°
2026-05-04 18:10 45.24319 6.76129 39030 ft 500 kts 353°
2026-05-04 18:11 45.31267 6.75660 39032 ft 499 kts 353°
2026-05-04 18:11 45.38201 6.75196 39035 ft 499 kts 353°
2026-05-04 18:12 45.45150 6.74730 39050 ft 499 kts 353°
2026-05-04 18:12 45.52086 6.74263 39063 ft 499 kts 353°
2026-05-04 18:13 45.59008 6.73787 39048 ft 500 kts 353°
2026-05-04 18:14 45.69439 6.73071 39041 ft 501 kts 353°
2026-05-04 18:14 45.76391 6.72590 39034 ft 501 kts 353°
2026-05-04 18:15 45.90347 6.71640 39028 ft 501 kts 353°
2026-05-04 18:16 45.97297 6.71168 39033 ft 501 kts 353°
2026-05-04 18:16 46.04265 6.70748 39029 ft 501 kts 355°
2026-05-04 18:17 46.14721 6.71771 39035 ft 508 kts
2026-05-04 18:18 46.25118 6.75291 39037 ft 513 kts 13°
2026-05-04 18:18 46.31953 6.78241 39043 ft 513 kts 13°
2026-05-04 18:19 46.42209 6.82639 39038 ft 512 kts 13°
2026-05-04 18:19 46.48971 6.85880 39037 ft 514 kts 20°
2026-05-04 18:20 46.55235 6.90821 39043 ft 518 kts 32°
2026-05-04 18:20 46.60775 6.97560 39026 ft 521 kts 45°
2026-05-04 18:21 46.65438 7.05553 39031 ft 522 kts 50°
2026-05-04 18:21 46.69952 7.13863 39033 ft 520 kts 51°
2026-05-04 18:22 46.74453 7.22095 39032 ft 520 kts 50°
2026-05-04 18:22 46.78955 7.30283 39023 ft 519 kts 50°
2026-05-04 18:23 46.83478 7.38527 39024 ft 519 kts 50°
2026-05-04 18:23 46.87969 7.46745 39016 ft 518 kts 50°
2026-05-04 18:24 46.92442 7.54967 39015 ft 517 kts 50°
2026-05-04 18:24 46.96910 7.63205 39021 ft 517 kts 50°
2026-05-04 18:25 47.01395 7.71502 39020 ft 517 kts 51°
2026-05-04 18:25 47.05822 7.79714 39015 ft 515 kts 51°
2026-05-04 18:26 47.10175 7.87821 39007 ft 515 kts 51°
2026-05-04 18:26 47.14422 7.96182 39021 ft 515 kts 56°
2026-05-04 18:27 47.18261 8.05053 39020 ft 514 kts 57°
2026-05-04 18:27 47.22030 8.13982 39017 ft 512 kts 57°
2026-05-04 18:28 47.25843 8.22770 39016 ft 512 kts 54°
2026-05-04 18:28 47.30298 8.30918 39025 ft 511 kts 46°
2026-05-04 18:29 47.35440 8.38026 39016 ft 508 kts 37°
2026-05-04 18:29 47.41174 8.44084 39002 ft 507 kts 31°
2026-05-04 18:30 47.50038 8.52593 39006 ft 505 kts 31°
2026-05-04 18:31 47.55911 8.58272 38994 ft 505 kts 31°
2026-05-04 18:31 47.61762 8.63966 38992 ft 505 kts 32°
2026-05-04 18:32 47.67520 8.69594 38984 ft 506 kts 32°
2026-05-04 18:32 47.73365 8.75322 38992 ft 506 kts 32°
2026-05-04 18:33 47.79263 8.81120 38980 ft 505 kts 33°
2026-05-04 18:33 47.85112 8.86888 38972 ft 504 kts 32°
2026-05-04 18:34 47.90900 8.92609 38968 ft 503 kts 33°
2026-05-04 18:34 47.96730 8.98386 38971 ft 503 kts 33°
2026-05-04 18:35 48.02551 9.04170 38966 ft 503 kts 33°
2026-05-04 18:35 48.08390 9.09962 38968 ft 504 kts 31°
2026-05-04 18:36 48.14463 9.14826 38953 ft 504 kts 22°
2026-05-04 18:36 48.21044 9.18329 38962 ft 503 kts 13°
2026-05-04 18:37 48.27889 9.20307 38956 ft 501 kts
2026-05-04 18:37 48.34814 9.21450 38949 ft 500 kts
2026-05-04 18:38 48.41731 9.22551 38956 ft 500 kts
2026-05-04 18:38 48.48663 9.23700 38959 ft 501 kts
2026-05-04 18:39 48.55583 9.24867 38953 ft 502 kts
2026-05-04 18:39 48.62538 9.26043 38959 ft 502 kts
2026-05-04 18:40 48.69539 9.27126 38962 ft 502 kts
2026-05-04 18:40 48.76496 9.28175 38958 ft 503 kts
2026-05-04 18:41 48.83477 9.29239 38955 ft 503 kts
2026-05-04 18:41 48.90749 9.30356 38951 ft 503 kts
2026-05-04 18:42 48.97792 9.31441 38954 ft 503 kts
2026-05-04 18:42 49.04361 9.32456 38946 ft 504 kts
2026-05-04 18:43 49.11230 9.33520 38938 ft 504 kts
2026-05-04 18:43 49.18248 9.34612 38939 ft 504 kts
2026-05-04 18:44 49.25190 9.35693 38939 ft 504 kts
2026-05-04 18:44 49.32170 9.36784 38939 ft 504 kts
2026-05-04 18:45 49.39193 9.37885 38940 ft 505 kts
2026-05-04 18:45 49.46178 9.38981 38939 ft 505 kts
2026-05-04 18:46 49.53178 9.40083 38945 ft 505 kts
2026-05-04 18:46 49.60177 9.41190 38944 ft 505 kts
2026-05-04 18:47 49.63634 9.41739 38942 ft 505 kts
2026-05-04 18:47 49.73994 9.43391 38943 ft 505 kts
2026-05-04 18:48 49.81020 9.44515 38940 ft 505 kts
2026-05-04 18:48 49.88010 9.45637 38941 ft 505 kts
2026-05-04 18:49 49.94994 9.46757 38939 ft 505 kts
2026-05-04 18:49 50.01985 9.47884 38936 ft 506 kts
2026-05-04 18:50 50.08963 9.49399 38933 ft 508 kts
2026-05-04 18:50 50.15742 9.51604 38934 ft 508 kts
2026-05-04 18:51 50.22683 9.53969 38932 ft 508 kts
2026-05-04 18:51 50.29568 9.56304 38935 ft 508 kts
2026-05-04 18:52 50.36504 9.58648 38933 ft 508 kts
2026-05-04 18:52 50.43419 9.60983 38935 ft 507 kts
2026-05-04 18:53 50.50308 9.63318 38925 ft 507 kts
2026-05-04 18:53 50.57229 9.65671 38938 ft 508 kts
2026-05-04 18:54 50.64059 9.68001 38928 ft 508 kts
2026-05-04 18:54 50.70972 9.70366 38932 ft 508 kts
2026-05-04 18:55 50.77925 9.72751 38920 ft 508 kts
2026-05-04 18:55 50.88247 9.76308 38924 ft 508 kts
2026-05-04 18:56 50.95171 9.78701 38919 ft 508 kts
2026-05-04 18:56 51.01993 9.81794 38930 ft 510 kts 16°
2026-05-04 18:57 51.08701 9.85553 38918 ft 510 kts 17°
2026-05-04 18:57 51.15306 9.89227 38911 ft 510 kts 16°
2026-05-04 18:58 51.21957 9.92868 38915 ft 510 kts 16°
2026-05-04 18:58 51.28680 9.96532 38920 ft 509 kts 16°
2026-05-04 18:59 51.35401 10.00201 38919 ft 508 kts 16°
2026-05-04 18:59 51.42092 10.03862 38915 ft 508 kts 16°
2026-05-04 19:00 51.48814 10.07553 38925 ft 508 kts 16°
2026-05-04 19:00 51.55543 10.11255 38926 ft 508 kts 15°
2026-05-04 19:01 51.62227 10.14946 38923 ft 508 kts 16°
2026-05-04 19:01 51.68917 10.18652 38926 ft 508 kts 16°
2026-05-04 19:02 51.75636 10.22385 38931 ft 507 kts 15°
2026-05-04 19:02 51.82306 10.26103 38922 ft 507 kts 16°
2026-05-04 19:03 51.88980 10.29836 38922 ft 506 kts 15°
2026-05-04 19:03 51.95652 10.33579 38924 ft 505 kts 15°
2026-05-04 19:04 52.02333 10.37338 38926 ft 506 kts 16°
2026-05-04 19:04 52.09027 10.41114 38921 ft 506 kts 15°
2026-05-04 19:05 52.15569 10.44820 38917 ft 506 kts 15°
2026-05-04 19:05 52.22191 10.48583 38919 ft 505 kts 15°
2026-05-04 19:06 52.28847 10.52375 38928 ft 504 kts 16°
2026-05-04 19:06 52.35471 10.56160 38931 ft 504 kts 16°
2026-05-04 19:07 52.42025 10.59921 38936 ft 504 kts 15°
2026-05-04 19:07 52.48716 10.63770 38937 ft 504 kts 15°
2026-05-04 19:08 52.55187 10.67504 38933 ft 504 kts 16°
2026-05-04 19:08 52.61856 10.71366 38934 ft 503 kts 16°
2026-05-04 19:09 52.68431 10.75185 38933 ft 504 kts 16°
2026-05-04 19:09 52.75051 10.79042 38932 ft 503 kts 16°
2026-05-04 19:10 52.81687 10.82921 38933 ft 503 kts 16°
2026-05-04 19:10 52.88271 10.86782 38934 ft 503 kts 16°
2026-05-04 19:11 52.94862 10.90660 38938 ft 503 kts 16°
2026-05-04 19:11 53.01469 10.94562 38942 ft 503 kts 16°
2026-05-04 19:12 53.11245 11.00356 38929 ft 502 kts 16°
2026-05-04 19:13 53.17848 11.04285 38926 ft 502 kts 16°
2026-05-04 19:13 53.24413 11.08205 38805 ft 503 kts 16°
2026-05-04 19:13 53.27706 11.10178 38563 ft 497 kts 16°
2026-05-04 19:14 53.30930 11.12118 38312 ft 488 kts 16°
2026-05-04 19:14 53.34128 11.14042 38020 ft 481 kts 15°
2026-05-04 19:14 53.37233 11.15911 37726 ft 474 kts 15°
2026-05-04 19:14 53.40313 11.17767 37298 ft 471 kts 15°
2026-05-04 19:15 53.43415 11.19637 36863 ft 470 kts 15°
2026-05-04 19:15 53.46473 11.21485 36345 ft 471 kts 15°
2026-05-04 19:15 53.49587 11.23368 35795 ft 474 kts 14°
2026-05-04 19:15 53.52670 11.25236 35238 ft 476 kts 14°
2026-05-04 19:16 53.55813 11.27142 34625 ft 479 kts 14°
2026-05-04 19:16 53.58958 11.29053 33939 ft 481 kts 14°
2026-05-04 19:16 53.62110 11.30966 33290 ft 482 kts 14°
2026-05-04 19:16 53.65270 11.32889 32627 ft 484 kts 14°
2026-05-04 19:17 53.68429 11.34816 31966 ft 486 kts 14°
2026-05-04 19:17 53.71605 11.36758 31339 ft 486 kts 14°
2026-05-04 19:17 53.74804 11.38720 30917 ft 482 kts 14°
2026-05-04 19:17 53.77939 11.40649 30522 ft 477 kts 14°
2026-05-04 19:18 53.81038 11.42558 30111 ft 473 kts 14°
2026-05-04 19:18 53.84110 11.44451 29737 ft 469 kts 14°
2026-05-04 19:18 53.87136 11.46317 29366 ft 464 kts 14°
2026-05-04 19:18 53.90167 11.48190 28984 ft 460 kts 14°
2026-05-04 19:19 53.93156 11.50037 28628 ft 455 kts 14°
2026-05-04 19:19 53.96137 11.51883 28266 ft 451 kts 14°
2026-05-04 19:19 53.99085 11.53711 27981 ft 457 kts 14°
2026-05-04 19:19 54.02079 11.55561 27952 ft 464 kts 14°
2026-05-04 19:20 54.05116 11.57449 27955 ft 466 kts 14°
2026-05-04 19:20 54.08166 11.59351 27938 ft 465 kts 14°
2026-05-04 19:20 54.11191 11.61244 27502 ft 465 kts 14°
2026-05-04 19:20 54.14242 11.63149 26617 ft 471 kts 14°
2026-05-04 19:21 54.17239 11.65022 25949 ft 471 kts 15°
2026-05-04 19:21 54.20344 11.66970 25371 ft 468 kts 15°
2026-05-04 19:21 54.23411 11.68900 24771 ft 467 kts 15°
2026-05-04 19:21 54.26462 11.70823 24193 ft 464 kts 15°
2026-05-04 19:22 54.29388 11.72990 23629 ft 466 kts 23°
2026-05-04 19:22 54.32236 11.75691 23071 ft 465 kts 26°
2026-05-04 19:22 54.35016 11.78479 22611 ft 460 kts 26°
2026-05-04 19:22 54.37752 11.81223 22220 ft 454 kts 26°
2026-05-04 19:23 54.40457 11.83899 21842 ft 447 kts 26°
2026-05-04 19:23 54.43146 11.86526 21469 ft 441 kts 26°
2026-05-04 19:23 54.45800 11.89097 21048 ft 436 kts 25°
2026-05-04 19:23 54.48425 11.91628 20595 ft 433 kts 25°
2026-05-04 19:24 54.51064 11.94167 20133 ft 430 kts 25°
2026-05-04 19:24 54.53645 11.96652 19623 ft 425 kts 25°
2026-05-04 19:24 54.56203 11.99116 18852 ft 420 kts 25°
2026-05-04 19:24 54.58712 12.01536 18119 ft 416 kts 25°
2026-05-04 19:25 54.61191 12.03932 17627 ft 405 kts 26°
2026-05-04 19:25 54.63625 12.06290 17269 ft 396 kts 25°
2026-05-04 19:25 54.65999 12.08590 16882 ft 394 kts 25°
2026-05-04 19:25 54.68398 12.10915 16499 ft 391 kts 25°
2026-05-04 19:26 54.70764 12.13210 16139 ft 388 kts 26°
2026-05-04 19:26 54.73096 12.15479 15781 ft 385 kts 25°
2026-05-04 19:26 54.75412 12.17733 15415 ft 382 kts 25°
2026-05-04 19:26 54.77707 12.19970 15062 ft 378 kts 25°
2026-05-04 19:27 54.80004 12.22213 14704 ft 376 kts 25°
2026-05-04 19:27 54.82281 12.24441 14335 ft 373 kts 25°
2026-05-04 19:27 54.84501 12.26614 14015 ft 368 kts 25°
2026-05-04 19:27 54.86712 12.28784 13470 ft 355 kts 25°
2026-05-04 19:28 54.88800 12.30840 13216 ft 335 kts 25°
2026-05-04 19:28 54.90762 12.32772 12985 ft 322 kts 25°
2026-05-04 19:28 54.92714 12.34689 12729 ft 319 kts 24°
2026-05-04 19:28 54.94653 12.36591 12461 ft 316 kts 24°
2026-05-04 19:29 54.96556 12.38462 12192 ft 315 kts 24°
2026-05-04 19:29 54.98445 12.40323 11909 ft 313 kts 24°
2026-05-04 19:29 55.00353 12.42204 11617 ft 312 kts 25°
2026-05-04 19:29 55.02217 12.44046 11339 ft 310 kts 24°
2026-05-04 19:30 55.04097 12.45908 11058 ft 309 kts 24°
2026-05-04 19:30 55.05948 12.47742 10790 ft 307 kts 24°
2026-05-04 19:30 55.07793 12.49572 10520 ft 306 kts 24°
2026-05-04 19:30 55.09648 12.51414 10277 ft 303 kts 25°
2026-05-04 19:31 55.11468 12.53223 10139 ft 302 kts 25°
2026-05-04 19:31 55.13296 12.55041 10056 ft 302 kts 25°
2026-05-04 19:31 55.15144 12.56882 10001 ft 302 kts 25°
2026-05-04 19:31 55.16952 12.58685 9920 ft 303 kts 25°
2026-05-04 19:32 55.18793 12.60524 9656 ft 302 kts 25°
2026-05-04 19:32 55.20589 12.62319 9406 ft 300 kts 25°
2026-05-04 19:32 55.22425 12.64106 9139 ft 297 kts 21°
2026-05-04 19:32 55.24294 12.65554 8941 ft 291 kts 16°
2026-05-04 19:33 55.26209 12.66706 8911 ft 289 kts 13°
2026-05-04 19:33 55.28117 12.67784 8669 ft 288 kts 13°
2026-05-04 19:33 55.30036 12.68858 8355 ft 289 kts 13°
2026-05-04 19:33 55.31918 12.69919 8096 ft 287 kts 13°
2026-05-04 19:34 55.33808 12.70993 7848 ft 285 kts 13°
2026-05-04 19:34 55.35695 12.72068 7589 ft 284 kts 14°
2026-05-04 19:34 55.37577 12.73143 7334 ft 282 kts 14°
2026-05-04 19:34 55.39425 12.74199 7084 ft 280 kts 14°
2026-05-04 19:35 55.41280 12.75262 6826 ft 279 kts 14°
2026-05-04 19:35 55.43120 12.76317 6566 ft 277 kts 14°
2026-05-04 19:35 55.44953 12.77367 6303 ft 276 kts 14°
2026-05-04 19:35 55.46770 12.78412 6057 ft 274 kts 14°
2026-05-04 19:36 55.48582 12.79455 5804 ft 272 kts 14°
2026-05-04 19:36 55.50377 12.80489 5634 ft 268 kts 14°
2026-05-04 19:36 55.52117 12.81495 5439 ft 259 kts 14°
2026-05-04 19:36 55.53789 12.82462 5267 ft 250 kts 14°
2026-05-04 19:37 55.55420 12.83413 4987 ft 246 kts 16°
2026-05-04 19:37 55.57034 12.84513 4766 ft 243 kts 18°
2026-05-04 19:37 55.58579 12.85621 4575 ft 236 kts 18°
2026-05-04 19:37 55.60088 12.86710 4339 ft 233 kts 18°
2026-05-04 19:38 55.61581 12.87799 4150 ft 233 kts 21°
2026-05-04 19:38 55.62989 12.89183 3994 ft 233 kts 30°
2026-05-04 19:38 55.64262 12.90946 3970 ft 235 kts 37°
2026-05-04 19:38 55.65466 12.92813 3967 ft 235 kts 38°
2026-05-04 19:39 55.66670 12.94715 3789 ft 234 kts 38°
2026-05-04 19:39 55.67914 12.96590 3516 ft 232 kts 28°
2026-05-04 19:39 55.69347 12.97845 3263 ft 228 kts 18°
2026-05-04 19:39 55.70819 12.98833 3044 ft 225 kts 15°
2026-05-04 19:40 55.72277 12.99752 2977 ft 222 kts 12°
2026-05-04 19:40 55.73769 12.99889 2949 ft 215 kts 340°
2026-05-04 19:40 55.75009 12.98506 2962 ft 212 kts 308°
2026-05-04 19:40 55.75754 12.96255 2975 ft 212 kts 287°
2026-05-04 19:41 55.75871 12.93662 2972 ft 213 kts 269°
2026-05-04 19:41 55.75741 12.91089 2954 ft 204 kts 266°
2026-05-04 19:41 55.75570 12.88659 2948 ft 193 kts 265°
2026-05-04 19:41 55.75272 12.86348 2945 ft 197 kts 242°
2026-05-04 19:42 55.74309 12.84674 2953 ft 189 kts 222°
2026-05-04 19:42 55.73321 12.83326 2939 ft 170 kts 224°
2026-05-04 19:42 55.72430 12.82045 2957 ft 161 kts 225°
2026-05-04 19:42 55.71592 12.80787 2891 ft 156 kts 226°
2026-05-04 19:43 55.70770 12.79531 2560 ft 159 kts 226°
2026-05-04 19:43 55.69939 12.78244 2221 ft 161 kts 227°
2026-05-04 19:43 55.69073 12.76897 1709 ft 173 kts 227°
2026-05-04 19:43 55.68149 12.75433 1208 ft 182 kts 225°
2026-05-04 19:44 55.67227 12.74001 1026 ft 169 kts 225°
2026-05-04 19:44 55.66380 12.72698 1004 ft 157 kts 225°
2026-05-04 19:44 55.65544 12.71402 842 ft 161 kts 225°
2026-05-04 19:44 55.64702 12.70100 624 ft 160 kts 224°
2026-05-04 19:45 55.63873 12.68820 400 ft 152 kts 224°
2026-05-04 19:45 55.63093 12.67615 206 ft 146 kts 224°
2026-05-04 19:45 55.62345 12.66458 30 ft 139 kts 224°
2026-05-04 19:45 55.61700 12.65445 29 ft 95 kts 225°
2026-05-04 19:46 55.61402 12.64991 32 ft 36 kts 223°
2026-05-04 19:46 55.61261 12.64656 33 ft 32 kts 250°
2026-05-04 19:46 55.61200 12.64335 32 ft 17 kts 251°
2026-05-04 19:46 55.61201 12.64143 32 ft 14 kts 306°
2026-05-04 19:47 55.61290 12.64131 31 ft 14 kts 29°
2026-05-04 19:47 55.61380 12.64227 31 ft 15 kts 36°
2026-05-04 19:47 55.61473 12.64336 31 ft 16 kts 33°
2026-05-04 19:47 55.61571 12.64445 31 ft 17 kts 32°
2026-05-04 19:48 55.61673 12.64562 31 ft 17 kts 33°
2026-05-04 19:48 55.61779 12.64682 31 ft 18 kts 33°
2026-05-04 19:48 55.61887 12.64806 30 ft 18 kts 33°
2026-05-04 19:48 55.61988 12.64923 30 ft 16 kts 33°
2026-05-04 19:49 55.62048 12.64992 30 ft 1 kts 34°
2026-05-04 19:50 55.62055 12.65001 30 ft 2 kts 34°
2026-05-04 19:50 55.62078 12.65028 29 ft 5 kts 34°
2026-05-04 19:50 55.62117 12.65073 29 ft 7 kts 33°
2026-05-04 19:51 55.62170 12.65099 29 ft 8 kts 342°
2026-05-04 19:51 55.62209 12.65015 29 ft 9 kts 303°
2026-05-04 19:51 55.62246 12.64913 29 ft 10 kts 303°
2026-05-04 19:51 55.62286 12.64808 30 ft 9 kts 309°
2026-05-04 19:52 55.62347 12.64778 30 ft 10 kts
2026-05-04 19:52 55.62425 12.64777 30 ft 11 kts 358°
2026-05-04 19:52 55.62481 12.64781 30 ft 5 kts 27°
2026-05-04 19:52 55.62494 12.64837 29 ft 3 kts 89°
2026-05-04 19:53 55.62494 12.64875 29 ft 2 kts 89°
2026-05-04 19:53 55.62494 12.64888 29 ft 0 kts 89°
2026-05-04 19:53 55.62494 12.64892 29 ft 0 kts 89°